Starlink 30936

operational
NORAD ID: 58534 Int'l Des: 2023-192 Owner: SPXS Country: US Constellation: starlink
LEOCIRCULAR

关于 Starlink 30936

正在加载描述...

实时位置

正在加载3D地球...

即将过境

高度历史

Altitude vs Time

uPlot chart will show altitude changes over time

两行轨道根数

1 58534U 23192D 25258.10725622 .00001578 00000-0 65429-4 0 9990
2 58534 53.1596 148.3400 0001205 70.7269 289.3862 15.30182766 99246
Epoch: Sep 15, 2025 • Age: 32 hours

当前状态

高度 476.1 km
速度 7.63 km/s
星下点 29.02°N, 19.74°E
发射日期 Dec 8, 2023
运行时间 1.7 years
类型 internet

技术详情

分类 Payload
质量 730.00 kg
干质量 700.00 kg
总质量 730.00 kg
长度 0.30 m
直径 4.10 m
跨度 29.00 m
形状 Box + pan
制造商 SPXS
平台类型 Starlink V2M
阶段状态 In Orbit
所有者/国家 SPXS/US

大型星座

Loading constellations...